Regional Weather Roundup
Issued by NWS

Home | Current Version | Previous Version | Text Only | Print | Product List | Glossary On
Versions: 1 2 3 4 5 6 7 8 9 10 11 12 13 14 15 16 17 18 19 20 21 22 23 24 25 26 27 28 29 30 31 32 33 34 35 36 37 38 39 40 41 42 43 44 45 46 47 48 49 50
000
ASUS44 KFWD 301515
RWRTX
NORTH TEXAS HOURLY WEATHER ROUNDUP
NATIONAL WEATHER SERVICE FORT WORTH TX
1000 AM CDT FRI SEP 30 2016

NOTE: "FAIR" INDICATES FEW OR NO CLOUDS BELOW 12,000 FEET WITH NO
SIGNIFICANT WEATHER AND/OR OBSTRUCTIONS TO VISIBILITY.

TXZ118-119-301600-
DALLAS/FORT WORTH METROPLEX

CITY           SKY/WX    TMP DP  RH WIND       PRES   REMARKS
DFW AIRPORT    MOSUNNY   68  55  63 N6        30.22S
DALLAS LOVE    MOSUNNY   69  53  56 CALM      30.23S
FTW MEACHAM    SUNNY     68  52  56 N6        30.23S
DAL-EXECUTIVE  SUNNY     67  54  63 VRB3      30.22S
FTW-ALLIANCE   SUNNY     66  52  60 NE5       30.24S
FTW-NAS-JRB    MOSUNNY   65  51  60 N6        30.24S
FTW-SPINKS     SUNNY     66  54  63 N5        30.25S
ARLINGTON      SUNNY     66  53  63 N5        30.23S
GRAND PRAIRIE  SUNNY     64  52  63 N5        30.25R
ADDISON        SUNNY     66  52  59 N3        30.23S
MESQUITE       SUNNY     66  52  59 N3        30.23S
LANCASTER      SUNNY     68  51  55 N3        30.24S
$$

TXZ091>094-102>105-117-120-121-131>134-301600-
NORTH CENTRAL TEXAS

CITY           SKY/WX    TMP DP  RH WIND       PRES   REMARKS
SHRMAN/DENISON SUNNY     66  59  77 N5        30.25S
GAINESVILLE      N/A     64  52  65 N3        30.26S
BOWIE            N/A     67  54  63 CALM      30.26R HAZE
BRIDGEPORT     SUNNY     64  55  72 CALM      30.27S
DECATUR        SUNNY     65  51  58 NE3       30.25S
DENTON         SUNNY     65  54  67 N5        30.24S
MCKINNEY       SUNNY     66  55  67 N5        30.23S
GREENVILLE     SUNNY     64  52  63 NE5       30.23S
ROCKWALL       SUNNY     65  54  66 NE3       30.22S
TERRELL        SUNNY     66  53  63 N6        30.23R
WAXAHACHIE     SUNNY     65  56  70 CALM      30.24S
CLEBURNE       SUNNY     66  57  72 N6        30.25S
GRANBURY       SUNNY     64  54  68 NW3       30.25F
$$

TXZ083>090-098>101-113>116-127>130-139>142-154-155-301600-
WESTERN NORTH TEXAS

CITY           SKY/WX    TMP DP  RH WIND       PRES   REMARKS
WICHITA FALLS  SUNNY     63  53  70 E3        30.26S
WF-KICKAPOO    SUNNY     64  54  70 CALM      30.27S
VERNON         SUNNY     62  48  59 CALM      30.28R
ABILENE        SUNNY     60  54  80 CALM      30.28R
ABILENE-DYESS  SUNNY     62  52  69 CALM      30.26S
CISCO          SUNNY     63  52  67 NE6       30.26S
BRECKENRIDGE   SUNNY     62  56  82 CALM      30.25F
GRAHAM         SUNNY     63  55  77 CALM      30.25S
MINERAL WELLS  SUNNY     63  54  72 CALM      30.23F
STEPHENVILLE   SUNNY     66  50  56 CALM      30.27S
COMANCHE       SUNNY     61  54  76 CALM      30.26S
BROWNWOOD      SUNNY     63  54  72 CALM      30.26S
COLEMAN        SUNNY     62  51  69 CALM      30.27R
$$

TXZ143>147-156>162-174-175-301600-
CENTRAL TEXAS

CITY           SKY/WX    TMP DP  RH WIND       PRES   REMARKS
WACO           SUNNY     68  55  63 N6        30.23R
WACO-MCGREGOR  SUNNY     65  54  67 N7        30.23S
HILLSBORO      SUNNY     67  53  59 NE3       30.23S
CORSICANA      SUNNY     68  54  60 N3        30.23S
MEXIA          SUNNY     66  54  64 N3        30.21S
HEARNE         SUNNY     65  57  75 CALM      30.22S
CAMERON        SUNNY     65  56  70 N3        30.22S
TEMPLE         SUNNY     66  55  67 NW5       30.23R
KILLEEN        SUNNY     65  53  65 VRB5      30.23R
KILLEEN-SKYLRK SUNNY     65  54  67 N6        30.23S
FORT HOOD      SUNNY     64  53  68 VRB5      30.21R
GATESVILLE     SUNNY     64  54  68 CALM      30.26S
HAMILTON       SUNNY     64  55  72 N3        30.26R
LAMPASAS       SUNNY     65  54  66 NE3       30.23S
$$

TXZ095>097-106>112-122>126-135>138-148>153-164>167-301600-
EAST TEXAS

CITY           SKY/WX    TMP DP  RH WIND       PRES   REMARKS
PARIS          SUNNY     66  52  59 N5        30.22S
SULPHUR SPRNGS SUNNY     68  51  55 CALM      30.24S
MOUNT PLEASANT SUNNY     66  53  63 CALM      30.23R
GILMER         SUNNY     64  52  64 CALM      30.21S
MINEOLA        SUNNY     66  54  63 CALM      30.22R
TYLER          SUNNY     68  52  56 NE6       30.21R
LONGVIEW       SUNNY     67  54  63 NE5       30.20R
MARSHALL       SUNNY     67  53  60 CALM      30.21F
ATHENS         SUNNY     66  52  59 NE3       30.20S
PALESTINE      SUNNY     66  58  74 CALM      30.22S
JACKSONVILLE   SUNNY     66  53  63 N3        30.22S
HENDERSON      SUNNY     67  54  63 NE3       30.21S
CENTER         SUNNY     68  56  65 NE5       30.21R
NACOGDOCHES    SUNNY     70  57  64 N3        30.19R
LUFKIN         SUNNY     67  56  67 N5        30.20R
$$

SUPPLEMENTAL OBSERVATIONS (CENTRAL)

CITY           SKY/WX    TMP DP  RH WIND       PRES   REMARKS
CADDO GRASSLND   N/A     66  54  63 N2          N/A
PAT MAYSE LAKE   N/A     64  52  63 NW5         N/A
GREENVILLE       N/A     70  54  56 NE5         N/A
CEDAR HILL       N/A     64  55  72 N2          N/A
MCGREGOR         N/A     66  55  68 NE6         N/A
TEMPLE           N/A     72  52  49 NE3         N/A
$$

SUPPLEMENTAL OBSERVATIONS (WEST)

CITY           SKY/WX    TMP DP  RH WIND       PRES   REMARKS
MILLERS CREEK    N/A     64  57  77 NW1         N/A
POSSUM KINGDOM   N/A     64  52  63 NE2         N/A
LBJ GRASSLAND    N/A     70  52  52 N2          N/A
GRANBURY         N/A     64  54  68 N3          N/A
HAMBY            N/A     64  54  68 W1          N/A
$$

SUPPLEMENTAL OBSERVATIONS (EAST)

CITY           SKY/WX    TMP DP  RH WIND       PRES   REMARKS
CLARKSVILLE      N/A     72  52  49 NE3         N/A
TEXARKANA        N/A     73  59  60 CALM        N/A
LINDEN           N/A     72  54  53 E2          N/A
CADDO LAKE       N/A     70  55  60 NE2         N/A
GILMER           N/A     70  54  56 NE2         N/A
HENDERSON        N/A     70  54  56 NE2         N/A
LUFKIN           N/A     72  59  64 MISG        N/A
N SABINE NF      N/A     63  57  82 MISG        N/A
S SABINE NF      N/A     72  57  60 E3          N/A
$$

SUPPLEMENTAL OBSERVATIONS ARE A COLLECTION OF AUTOMATED INSTRUMENTS
THAT ARE MAINTAINED BY A VARIETY OF FEDERAL AND STATE AGENCIES.
CERTAIN ELEMENTS...SUCH AS HUMIDITY VALUES AND SUSTAINED WIND
SPEEDS...MAY BE APPROXIMATED.




USA.gov is the U.S. government's official web portal to all federal, state and local government web resources and services.